FW2365 Weather Reports


Display with metric or nautical units.
time (UTC)temp
F
wind
direction
speed
MPH
gust
MPH
rain 1hr
in
rain 24hr
in
rain mn
in
humidity
%
barometer
mb
20260903074515 63 309 2.0 5.0 0.00 0.00 0.00 74 1026.8
20260903074013 63 280 2.0 5.0 0.00 0.00 0.00 75 1026.8
20260903073512 63 299 2.0 5.0 0.00 0.00 0.00 75 1026.8
20260903073013 63 281 3.0 5.0 0.00 0.00 0.00 76 1026.8
20260903072511 62 284 3.0 5.0 0.00 0.00 0.00 76 1026.9
20260903072011 62 328 3.0 5.0 0.00 0.00 0.00 75 1026.8
20260903071510 62 309 1.0 3.0 0.00 0.00 0.00 76 1026.8
20260903071010 61 233 0.0 2.0 0.00 0.00 0.00 80 1026.9
20260903070509 61 233 0.0 2.0 0.00 0.00 0.00 81 1026.8
20260903070017 60 233 0.0 0.0 0.00 0.00 0.00 80 1026.9
20260903065509 60 233 0.0 0.0 0.00 0.00 0.00 82 1026.9
20260903065007 59 233 0.0 0.0 0.00 0.00 0.00 82 1026.8
20260903064506 59 233 0.0 0.0 0.00 0.00 0.00 82 1026.8
20260903064006 59 233 0.0 0.0 0.00 0.00 0.00 85 1026.8
20260903063506 59 233 0.0 0.0 0.00 0.00 0.00 85 1026.9
20260903063005 59 233 0.0 0.0 0.00 0.00 0.00 84 1026.9
20260903062505 59 233 0.0 0.0 0.00 0.00 0.00 84 1026.9
20260903062005 59 233 0.0 0.0 0.00 0.00 0.00 83 1026.9
20260903061512 59 233 0.0 0.0 0.00 0.00 0.00 84 1026.8
20260903061003 58 233 0.0 0.0 0.00 0.00 0.00 85 1026.8
20260903060503 57 233 0.0 0.0 0.00 0.00 0.00 86 1026.8
20260903060003 57 233 0.0 0.0 0.00 0.00 0.00 86 1026.8
20260903055502 57 230 0.0 0.0 0.00 0.00 0.00 86 1026.7
20260903055102 57 230 0.0 0.0 0.00 0.00 0.00 84 1026.7
20260903054602 57 230 0.0 0.0 0.00 0.00 0.00 83 1026.7
20260903054100 57 230 0.0 0.0 0.00 0.00 0.00 84 1026.7
20260903053603 57 230 0.0 0.0 0.00 0.00 0.00 84 1026.6
20260903053101 57 230 0.0 0.0 0.00 0.00 0.00 83 1026.6
20260903052557 57 230 0.0 0.0 0.00 0.00 0.00 82 1026.5
20260903052101 57 230 0.0 0.0 0.00 0.00 0.00 82 1026.5
20260903051556 57 230 0.0 0.0 0.00 0.00 0.00 81 1026.4
20260903051055 57 230 0.0 0.0 0.00 0.00 0.00 81 1026.4
20260903050554 57 230 0.0 0.0 0.00 0.00 0.00 81 1026.3
20260903050054 57 230 0.0 0.0 0.00 0.00 0.00 81 1026.3
20260903045554 57 230 0.0 0.0 0.00 0.00 0.00 81 1026.2
20260903045052 57 230 0.0 0.0 0.00 0.00 0.00 81 1026.1
20260903044552 57 230 0.0 0.0 0.00 0.00 0.00 80 1026.3
20260903044054 57 230 0.0 0.0 0.00 0.00 0.00 80 1026.3
20260903043551 57 230 0.0 0.0 0.00 0.00 0.00 80 1026.3
20260903043050 57 230 0.0 0.0 0.00 0.00 0.00 79 1026.2
20260903042550 57 230 0.0 0.0 0.00 0.00 0.00 79 1026.2
20260903042049 57 230 0.0 0.0 0.00 0.00 0.00 79 1026.1
20260903041551 57 230 0.0 0.0 0.00 0.00 0.00 79 1026.1
20260903041048 57 230 0.0 0.0 0.00 0.00 0.00 79 1026.0
20260903040548 57 230 0.0 0.0 0.00 0.00 0.00 79 1026.0
20260903040048 57 230 0.0 0.0 0.00 0.00 0.00 79 1026.1
20260903035547 57 230 0.0 0.0 0.00 0.00 0.00 79 1026.1
20260903035047 57 230 0.0 0.0 0.00 0.00 0.00 79 1026.0
20260903034547 57 230 0.0 0.0 0.00 0.00 0.00 80 1026.0
20260903034047 57 230 0.0 0.0 0.00 0.00 0.00 81 1026.0
20260903033546 57 230 0.0 0.0 0.00 0.00 0.00 81 1026.0
20260903033047 58 230 0.0 0.0 0.00 0.00 0.00 80 1026.0
20260903032546 58 230 0.0 0.0 0.00 0.00 0.00 79 1025.9
20260903032045 58 230 0.0 0.0 0.00 0.00 0.00 79 1025.9
20260903031550 58 230 0.0 0.0 0.00 0.00 0.00 79 1025.9
20260903031049 58 230 0.0 0.0 0.00 0.00 0.00 79 1025.9
20260903030545 57 230 0.0 0.0 0.00 0.00 0.00 79 1025.9
20260903030045 57 230 0.0 0.0 0.00 0.00 0.00 80 1026.0
20260903025544 57 230 0.0 0.0 0.00 0.00 0.00 80 1026.0
20260903025044 57 230 0.0 0.0 0.00 0.00 0.00 80 1026.0
20260903024544 57 230 0.0 0.0 0.00 0.00 0.00 81 1026.0
20260903024044 57 230 0.0 0.0 0.00 0.00 0.00 81 1026.0
20260903023547 57 230 0.0 0.0 0.00 0.00 0.00 81 1026.0
20260903023043 58 230 0.0 0.0 0.00 0.00 0.00 82 1025.9
20260903022543 58 230 0.0 0.0 0.00 0.00 0.00 82 1026.0
20260903022042 58 230 0.0 0.0 0.00 0.00 0.00 82 1025.9
20260903021545 58 230 0.0 0.0 0.00 0.00 0.00 82 1025.9
20260903021041 58 230 0.0 0.0 0.00 0.00 0.00 81 1025.9
20260903020541 58 230 0.0 0.0 0.00 0.00 0.00 80 1025.8
20260903020059 58 230 0.0 0.0 0.00 0.00 0.00 80 1025.8
20260903015541 58 230 0.0 0.0 0.00 0.00 0.00 81 1025.8
20260903015039 58 230 0.0 0.0 0.00 0.00 0.00 81 1025.8
20260903014540 58 230 0.0 2.0 0.00 0.00 0.00 81 1025.8
20260903014042 58 230 0.0 2.0 0.00 0.00 0.00 80 1025.8
20260903013537 59 230 0.0 0.0 0.00 0.00 0.00 80 1025.8
20260903013036 59 230 0.0 0.0 0.00 0.00 0.00 79 1025.8
20260903012536 59 230 0.0 0.0 0.00 0.00 0.00 78 1025.8
20260903012035 59 230 0.0 0.0 0.00 0.00 0.00 77 1025.8
20260903011538 60 230 0.0 0.0 0.00 0.00 0.00 77 1025.8
20260903011034 60 230 0.0 0.0 0.00 0.00 0.00 76 1025.8
20260903010533 60 230 0.0 2.0 0.00 0.00 0.00 76 1025.7
20260903010034 60 230 0.0 2.0 0.00 0.00 0.00 76 1025.7
20260903005535 60 233 0.0 0.0 0.00 0.00 0.00 76 1025.6
20260903005034 60 233 0.0 0.0 0.00 0.00 0.00 76 1025.7
20260903004532 60 233 0.0 0.0 0.00 0.00 0.00 76 1025.7
20260903004033 60 233 0.0 0.0 0.00 0.00 0.00 75 1025.7
20260903003531 60 233 0.0 0.0 0.00 0.00 0.00 75 1025.7
20260903003033 60 233 0.0 0.0 0.00 0.00 0.00 75 1025.7
20260903002531 60 233 0.0 0.0 0.00 0.00 0.00 74 1025.7
20260903002031 60 233 0.0 0.0 0.00 0.00 0.00 75 1025.7
20260903001534 60 233 0.0 0.0 0.00 0.00 0.00 75 1025.7
20260903001029 60 233 0.0 0.0 0.00 0.00 0.00 75 1025.7
20260903000529 60 233 0.0 0.0 0.00 0.00 0.00 74 1025.6
20260903000038 60 233 0.0 0.0 0.00 0.00 0.00 74 1025.7
20260902235530 61 233 0.0 0.0 0.00 0.00 0.00 74 1025.7
20260902235028 61 233 0.0 0.0 0.00 0.00 0.00 73 1025.7
20260902234527 61 233 0.0 0.0 0.00 0.00 0.00 72 1025.7
20260902234030 61 233 0.0 0.0 0.00 0.00 0.00 72 1025.8
20260902233527 61 233 0.0 0.0 0.00 0.00 0.00 72 1025.7
20260902233028 61 233 0.0 0.0 0.00 0.00 0.00 72 1025.7
20260902232531 61 233 0.0 2.0 0.00 0.00 0.00 72 1025.7
20260902232025 61 233 0.0 2.0 0.00 0.00 0.00 72 1025.8
20260902231531 61 233 1.0 2.0 0.00 0.00 0.00 73 1025.8
20260902231025 61 233 1.0 2.0 0.00 0.00 0.00 73 1025.8
20260902230526 61 284 0.0 0.0 0.00 0.00 0.00 73 1025.9
20260902230024 61 285 0.0 0.0 0.00 0.00 0.00 73 1025.9
20260902225524 61 285 0.0 0.0 0.00 0.00 0.00 73 1025.9
20260902225028 61 285 0.0 0.0 0.00 0.00 0.00 73 1026.0
20260902224522 62 285 0.0 0.0 0.00 0.00 0.00 72 1025.9
20260902224021 62 285 0.0 0.0 0.00 0.00 0.00 72 1025.9
20260902223521 62 285 0.0 0.0 0.00 0.00 0.00 71 1025.9
20260902223021 62 285 0.0 0.0 0.00 0.00 0.00 71 1025.9
20260902222525 62 285 0.0 1.0 0.00 0.00 0.00 70 1025.8
20260902222023 62 285 0.0 2.0 0.00 0.00 0.00 70 1025.8
20260902221535 62 285 0.0 2.0 0.00 0.00 0.00 70 1025.8
20260902221022 62 285 0.0 0.0 0.00 0.00 0.00 70 1025.7
20260902220519 62 285 0.0 0.0 0.00 0.00 0.00 70 1025.8
20260902220017 62 285 0.0 0.0 0.00 0.00 0.00 70 1025.7
20260902215518 62 285 0.0 0.0 0.00 0.00 0.00 71 1025.7
20260902215017 62 285 0.0 0.0 0.00 0.00 0.00 70 1025.7
20260902214518 63 285 0.0 0.0 0.00 0.00 0.00 70 1025.6
20260902214017 63 285 0.0 1.0 0.00 0.00 0.00 69 1025.6
20260902213516 63 285 0.0 1.0 0.00 0.00 0.00 69 1025.5
20260902213019 63 285 0.0 0.0 0.00 0.00 0.00 69 1025.6
20260902212516 63 285 0.0 0.0 0.00 0.00 0.00 69 1025.5
20260902212016 63 285 0.0 0.0 0.00 0.00 0.00 70 1025.5
20260902211518 63 285 0.0 0.0 0.00 0.00 0.00 69 1025.5
20260902211016 63 285 0.0 0.0 0.00 0.00 0.00 69 1025.5
20260902210516 63 285 0.0 2.0 0.00 0.00 0.00 70 1025.4
20260902210016 63 285 1.0 3.0 0.00 0.00 0.00 69 1025.4
20260902205515 63 285 0.0 3.0 0.00 0.00 0.00 69 1025.4
20260902205016 63 304 0.0 0.0 0.00 0.00 0.00 72 1025.3
20260902204515 63 304 0.0 0.0 0.00 0.00 0.00 72 1025.2
20260902204014 64 304 0.0 0.0 0.00 0.00 0.00 70 1025.3
20260902203514 64 304 0.0 0.0 0.00 0.00 0.00 70 1025.3
20260902203018 64 304 0.0 0.0 0.00 0.00 0.00 69 1025.2
20260902202515 64 304 0.0 0.0 0.00 0.00 0.00 68 1025.2
20260902202016 64 304 0.0 0.0 0.00 0.00 0.00 65 1025.2
20260902201514 65 304 0.0 0.0 0.00 0.00 0.00 66 1025.2
20260902201019 65 304 0.0 0.0 0.00 0.00 0.00 64 1025.2
20260902200514 65 304 0.0 0.0 0.00 0.00 0.00 62 1025.2
20260902200014 66 304 0.0 0.0 0.00 0.00 0.00 63 1025.2
20260902195516 66 304 0.0 0.0 0.00 0.00 0.00 61 1025.1
20260902195014 66 304 0.0 0.0 0.00 0.00 0.00 62 1025.1
20260902194525 66 304 0.0 0.0 0.00 0.00 0.00 62 1025.1
20260902194013 66 304 0.0 0.0 0.00 0.00 0.00 62 1025.1
20260902193513 66 304 0.0 0.0 0.00 0.00 0.00 62 1025.1
20260902193014 66 304 0.0 1.0 0.00 0.00 0.00 61 1025.1
20260902192512 67 304 0.0 2.0 0.00 0.00 0.00 61 1025.1
20260902192012 67 304 0.0 2.0 0.00 0.00 0.00 60 1025.0
20260902191516 67 158 0.0 0.0 0.00 0.00 0.00 59 1025.0
20260902191012 67 158 0.0 0.0 0.00 0.00 0.00 59 1025.0
20260902190512 67 158 0.0 0.0 0.00 0.00 0.00 60 1024.9
20260902190012 67 158 0.0 0.0 0.00 0.00 0.00 59 1024.8
20260902185512 67 158 0.0 0.0 0.00 0.00 0.00 59 1024.8
20260902185013 67 158 0.0 0.0 0.00 0.00 0.00 59 1024.8
20260902184511 68 158 0.0 0.0 0.00 0.00 0.00 58 1024.7
20260902184011 68 158 0.0 0.0 0.00 0.00 0.00 57 1024.6
20260902183511 68 158 0.0 0.0 0.00 0.00 0.00 58 1024.6
20260902183011 68 158 0.0 0.0 0.00 0.00 0.00 57 1024.5
20260902182611 68 158 0.0 0.0 0.00 0.00 0.00 57 1024.4
20260902182013 68 158 0.0 0.0 0.00 0.00 0.00 56 1024.3
20260902181512 68 158 0.0 1.0 0.00 0.00 0.00 57 1024.2
20260902181010 68 158 0.0 2.0 0.00 0.00 0.00 57 1024.2
20260902180510 68 158 0.0 2.0 0.00 0.00 0.00 57 1024.2
20260902180011 69 157 0.0 3.0 0.00 0.00 0.00 57 1024.1
20260902175510 69 155 0.0 3.0 0.00 0.00 0.00 58 1024.1
20260902175012 69 309 0.0 1.0 0.00 0.00 0.00 56 1023.9
20260902174509 69 359 0.0 1.0 0.00 0.00 0.00 56 1023.9
20260902174012 70 359 0.0 0.0 0.00 0.00 0.00 56 1023.8
20260902173509 70 359 0.0 0.0 0.00 0.00 0.00 56 1023.8
20260902173009 70 359 0.0 2.0 0.00 0.00 0.00 56 1023.8
20260902172509 70 359 0.0 2.0 0.00 0.00 0.00 55 1023.8
20260902172009 71 247 0.0 9.0 0.00 0.00 0.00 55 1023.7
20260902171511 71 241 1.0 9.0 0.00 0.00 0.00 55 1023.7
20260902171010 71 284 1.0 8.0 0.00 0.00 0.00 54 1023.6
20260902170508 71 320 1.0 8.0 0.00 0.00 0.00 54 1023.6
20260902170009 71 322 3.0 10.0 0.00 0.00 0.00 53 1023.5
20260902165509 71 309 2.0 12.0 0.00 0.00 0.00 54 1023.5
20260902165009 71 329 7.0 12.0 0.00 0.00 0.00 53 1023.4
20260902164507 71 320 5.0 15.0 0.00 0.00 0.00 53 1023.4
20260902164008 71 241 7.0 15.0 0.00 0.00 0.00 53 1023.4
20260902163508 71 297 8.0 13.0 0.00 0.00 0.00 54 1023.3
20260902163008 72 284 7.0 13.0 0.00 0.00 0.00 54 1023.2
20260902162507 72 304 5.0 13.0 0.00 0.00 0.00 54 1023.1
20260902162007 72 314 6.0 12.0 0.00 0.00 0.00 55 1023.1
20260902161507 72 309 2.0 9.0 0.00 0.00 0.00 56 1023.1
20260902161006 72 309 4.0 10.0 0.00 0.00 0.00 55 1023.1
20260902160511 72 329 6.0 12.0 0.00 0.00 0.00 56 1023.0
20260902160009 72 337 3.0 12.0 0.00 0.00 0.00 56 1023.0
20260902155512 72 293 3.0 12.0 0.00 0.00 0.00 56 1023.0
20260902155006 72 314 6.0 12.0 0.00 0.00 0.00 56 1023.1
20260902154505 72 266 5.0 12.0 0.00 0.00 0.00 56 1023.0
20260902154005 72 323 6.0 11.0 0.00 0.00 0.00 56 1023.0
20260902153508 72 314 4.0 10.0 0.00 0.00 0.00 56 1022.9
20260902153006 72 295 2.0 9.0 0.00 0.00 0.00 57 1022.9
20260902152505 72 285 5.0 9.0 0.00 0.00 0.00 55 1022.9
20260902152005 72 296 4.0 9.0 0.00 0.00 0.00 55 1022.9
20260902151506 73 304 3.0 9.0 0.00 0.00 0.00 56 1023.0
20260902151005 73 285 2.0 8.0 0.00 0.00 0.00 57 1023.1
20260902150504 73 295 2.0 7.0 0.00 0.00 0.00 56 1023.1
20260902150004 73 273 1.0 3.0 0.00 0.00 0.00 57 1023.1
20260902145503 73 274 0.0 4.0 0.00 0.00 0.00 58 1023.1
20260902145002 73 274 0.0 5.0 0.00 0.00 0.00 55 1023.2
20260902144502 73 324 2.0 8.0 0.00 0.00 0.00 57 1023.2
20260902144002 73 309 4.0 8.0 0.00 0.00 0.00 54 1023.3
20260902143502 74 304 2.0 8.0 0.00 0.00 0.00 54 1023.3
20260902143002 74 293 4.0 8.0 0.00 0.00 0.00 53 1023.3
20260902142501 74 292 3.0 5.0 0.00 0.00 0.00 52 1023.3
20260902142101 75 268 3.0 5.0 0.00 0.00 0.00 52 1023.3
20260902141601 75 284 2.0 4.0 0.00 0.00 0.00 56 1023.4
20260902141100 75 284 0.0 3.0 0.00 0.00 0.00 52 1023.4
20260902140601 75 285 0.0 5.0 0.00 0.00 0.00 53 1023.4
20260902140059 75 287 1.0 5.0 0.00 0.00 0.00 53 1023.4
20260902135557 75 304 0.0 4.0 0.00 0.00 0.00 57 1023.4
20260902135056 74 304 0.0 5.0 0.00 0.00 0.00 56 1023.4
20260902134555 74 314 1.0 5.0 0.00 0.00 0.00 55 1023.4
20260902134054 74 266 0.0 4.0 0.00 0.00 0.00 59 1023.4
20260902133553 74 197 1.0 4.0 0.00 0.00 0.00 59 1023.4
20260902133052 73 271 2.0 5.0 0.00 0.00 0.00 56 1023.4
20260902132551 73 289 3.0 9.0 0.00 0.00 0.00 58 1023.4
20260902132054 73 322 2.0 9.0 0.00 0.00 0.00 56 1023.4
20260902131607 73 290 3.0 9.0 0.00 0.00 0.00 60 1023.4
20260902131052 73 272 4.0 10.0 0.00 0.00 0.00 56 1023.5
20260902130551 72 309 5.0 11.0 0.00 0.00 0.00 59 1023.4
20260902130056 72 281 7.0 11.0 0.00 0.00 0.00 58 1023.5
20260902125550 73 309 6.0 11.0 0.00 0.00 0.00 58 1023.5
20260902125053 73 304 4.0 10.0 0.00 0.00 0.00 57 1023.6
20260902124549 73 285 4.0 9.0 0.00 0.00 0.00 57 1023.5
20260902124047 73 304 2.0 8.0 0.00 0.00 0.00 61 1023.5
20260902123546 73 295 4.0 8.0 0.00 0.00 0.00 59 1023.5
20260902123046 73 309 3.0 8.0 0.00 0.00 0.00 59 1023.6
20260902122546 73 304 2.0 8.0 0.00 0.00 0.00 60 1023.6
20260902122044 73 291 3.0 8.0 0.00 0.00 0.00 57 1023.5
20260902121547 73 289 4.0 8.0 0.00 0.00 0.00 57 1023.6
20260902121043 72 318 3.0 6.0 0.00 0.00 0.00 59 1023.7
20260902120542 72 300 3.0 9.0 0.00 0.00 0.00 58 1023.7
20260902120041 72 318 3.0 10.0 0.00 0.00 0.00 58 1023.9
20260902115543 73 324 4.0 10.0 0.00 0.00 0.00 59 1023.9
20260902115041 72 289 5.0 10.0 0.00 0.00 0.00 58 1024.0
20260902114549 72 282 4.0 8.0 0.00 0.00 0.00 59 1024.0
20260902114041 72 328 4.0 9.0 0.00 0.00 0.00 59 1024.0
20260902113536 71 296 5.0 9.0 0.00 0.00 0.00 63 1023.9
20260902113036 70 334 4.0 10.0 0.00 0.00 0.00 62 1024.0
20260902112535 70 304 5.0 10.0 0.00 0.00 0.00 63 1024.0
20260902112037 70 304 5.0 9.0 0.00 0.00 0.00 66 1024.2
20260902111540 70 314 5.0 8.0 0.00 0.00 0.00 65 1024.2
20260902111034 70 287 4.0 8.0 0.00 0.00 0.00 65 1024.2
20260902110534 71 328 3.0 8.0 0.00 0.00 0.00 66 1024.2
20260902110042 70 309 4.0 8.0 0.00 0.00 0.00 65 1024.4
20260902105531 70 309 3.0 8.0 0.00 0.00 0.00 65 1024.4
20260902105030 70 304 5.0 8.0 0.00 0.00 0.00 65 1024.3
20260902104537 69 304 4.0 5.0 0.00 0.00 0.00 66 1024.4
20260902104029 69 304 4.0 6.0 0.00 0.00 0.00 66 1024.5
20260902103528 69 304 4.0 6.0 0.00 0.00 0.00 65 1024.6
20260902103034 69 298 4.0 6.0 0.00 0.00 0.00 66 1024.7
20260902102527 69 309 3.0 5.0 0.00 0.00 0.00 66 1024.8
20260902102026 69 304 3.0 6.0 0.00 0.00 0.00 66 1024.9
20260902101625 69 304 4.0 6.0 0.00 0.00 0.00 65 1024.9
20260902101025 69 289 3.0 8.0 0.00 0.00 0.00 64 1025.0
20260902100524 70 295 5.0 8.0 0.00 0.00 0.00 64 1025.0
20260902100023 69 280 3.0 6.0 0.00 0.00 0.00 65 1025.1
20260902095522 69 290 2.0 6.0 0.00 0.00 0.00 67 1025.2
20260902095020 69 304 1.0 5.0 0.00 0.00 0.00 67 1025.2
20260902094519 68 304 0.0 3.0 0.00 0.00 0.00 66 1025.3
20260902094022 67 304 1.0 4.0 0.00 0.00 0.00 68 1025.3
20260902093516 66 304 2.0 4.0 0.00 0.00 0.00 69 1025.3
20260902093019 66 304 3.0 5.0 0.00 0.00 0.00 71 1025.4
20260902092514 66 304 3.0 5.0 0.00 0.00 0.00 71 1025.4
20260902092015 66 304 4.0 5.0 0.00 0.00 0.00 70 1025.5
20260902091514 66 304 3.0 6.0 0.00 0.00 0.00 70 1025.5
20260902091017 66 304 4.0 6.0 0.00 0.00 0.00 69 1025.6
20260902090514 66 304 2.0 8.0 0.00 0.00 0.00 68 1025.7
20260902090014 66 294 3.0 8.0 0.00 0.00 0.00 69 1025.7
20260902085513 66 297 4.0 8.0 0.00 0.00 0.00 69 1025.7
20260902085011 66 304 5.0 8.0 0.00 0.00 0.00 69 1025.7
20260902084510 65 295 4.0 6.0 0.00 0.00 0.00 70 1025.7
20260902084009 65 304 3.0 8.0 0.00 0.00 0.00 72 1025.7
20260902083507 64 298 4.0 8.0 0.00 0.00 0.00 73 1025.7
20260902083006 64 304 2.0 6.0 0.00 0.00 0.00 72 1025.7
20260902082507 64 304 4.0 5.0 0.00 0.00 0.00 74 1025.8
20260902082005 64 299 3.0 5.0 0.00 0.00 0.00 73 1025.7
20260902081504 64 304 4.0 5.0 0.00 0.00 0.00 74 1025.8
20260902081003 63 298 1.0 5.0 0.00 0.00 0.00 74 1025.7
20260902080503 63 319 0.0 0.0 0.00 0.00 0.00 74 1025.7
20260902080002 62 309 0.0 8.0 0.00 0.00 0.00 75 1025.8
20260902075502 62 309 4.0 8.0 0.00 0.00 0.00 75 1025.8
20260902075104 62 304 4.0 6.0 0.00 0.00 0.00 74 1025.9
20260902074559 62 309 4.0 9.0 0.00 0.00 0.00 76 1025.8